Showing default

KUIPER-00437, 68870

Orbit data source: Space-Track

KUIPER-00437, 68870 is a payload satellite owned by Kuiper Systems (US) in LEO that was launched on Tue, 28 Apr 2026 UTC via an ATLAS V 551 launch vehicle from the Air Force Eastern Test Range (AFETR). Payload-class satellites include a variety of spacecraft equipped with specific instruments for various scientific and technological missions. These include communications satellites like Starlink; space stations such as the ISS; scientific satellites like the Hubble; Earth observation satellites from companies like Planet Labs, Umbra, and HawkEye 360; GPS; miniature CubeSats for education and research; and military/defense satellites.

Loading next visibility...
Identifier
68870, 2026-095G
Orbit
LEO
Country
Flag of USUS
Related business
Manufacturer
Kuiper Systems
Mission
Operational spacecraft
Bus & Motor
KUIPER, Unknown motor
Mass
~490 kg wet, ~490 kg dry
Launch date (UTC)
2026-04-28 (2 months ago)
Launch vehicle
ATLAS V 551
Launch site
Air Force Eastern Test Range (AFETR)
Object type
Payload
Rocket body
Debris
Shape & HBR
Unknown shape, 3.4 m
Radar Cross Section
Large (>1 m²)

Expand to show TLE details & history
Last TLE update: 11 hours ago

TLE from 11 hours ago
0 KUIPER-00437
1 68870U 26095G   26171.40644493  .00016752  00000-0  45016-3 0  9992
2 68870  51.8793 226.8753 0007419 323.0277  37.0198 15.38007543  8228
Epoch: 2026-06-20T09:45Z
TLE epoch observation values (Epoch: 2026-06-20T09:45:16.841Z)
Latitude
-0.00005°
Longitude
171.93357°
Altitude
448.721 km
Speed
7.647 km/s
True Right ascension
15h 07m 30s
True Declination
0° 00' 00"
Sunlit
Object was in full shadow at epoch
Visualization orbit readout
Latitude
Unknown
Longitude
Unknown
Altitude
Unknown
Speed
Unknown
Apparent Right ascension
Unknown
Apparent Declination
Unknown
Sunlit
N/A
Visualization observer readout
Local Sidereal Time
07:21:42
Azimuth
Unknown
Elevation
Unknown
Doppler factor
Unknown
Orbital elements
Apogee altitude
457.536 km
Perigee altitude
447.4 km
Semi-major axis
6,830.605 km
Eccentricity
0.00074
Inclination
51.8793°
RAAN
226.8753°
Arg. of periapsis
323.0277°
True anomaly
37.07102°
Mean anomaly
37.0198°
Eccentric anomaly
37.04541°
Mean motion
3.84463 °/min
Orbital period
93.64 mins
BSTAR
0.00045016
Loading maneuver chart data...
Computing Atmospheric mass density...
Loading historical data...
Loading historical data...
Loading historical data...
Loading historical data...
Loading historical data...
Loading historical data...
Loading historical data...

Documentation

Showing up to 5 results
|